Weather Roundup
Issued by NWS Chicago, IL

Home | Current Version | Previous Version | Graphics & Text | Print | Product List | Glossary On
Versions: 1 2 3 4 5 6 7 8 9 10 11 12 13 14 15 16 17 18 19 20 21 22 23 24 25 26 27 28 29 30 31 32 33 34 35 36 37 38 39 40 41 42 43 44 45 46 47 48 49 50
000
NZUS59 KLOT 202004
HRRLOT

CHICAGO AREA WEATHER ROUNDUP
NATIONAL WEATHER SERVICE CHICAGO/ROMEOVILLE IL
300 PM CDT FRI OCT 20 2017

NOTE: "FAIR" INDICATES FEW OR NO CLOUDS BELOW 12,000 FEET WITH NO
SIGNIFICANT WEATHER AND/OR OBSTRUCTIONS TO VISIBILITY.

* THESE STATIONS ARE NOT UNDER NWS QUALITY CONTROL. THEY ALSO MAY NOT
  REPORT WEATHER SUCH AS PRECIPITATION OR FOG.

ILZ005-006-012>014-019>023-202100-
NORTHEAST ILLINOIS

CITY           SKY/WX    TMP DP  RH WIND       PRES   REMARKS
OHARE          PTSUNNY   78  49  35 SW16G22   30.07F
MIDWAY         PTSUNNY   79  50  36 SW14      30.08F
AURORA         SUNNY     77  50  38 S12       30.08F
LANSING*       SUNNY     78  55  44 S13       30.10F
JOLIET*        SUNNY     80  52  38 S13G18    30.09F HX  80
WAUKEGAN       SUNNY     77  52  41 S14       30.06F
DUPAGE AIRPORT SUNNY     77  52  41 S17       30.07F
WHEELING       SUNNY     78  51  38 S18G24    30.08F
KANKAKEE*      SUNNY     77  50  38 S9        30.11F
MORRIS*        SUNNY     80  49  33 S12       30.06F
NORTHERLY ISL    N/A     78  46  32 S14         N/A
$$

WIZ051-052-058>065-066-070>072-202100-
SOUTHEAST WISCONSIN

CITY           SKY/WX    TMP DP  RH WIND       PRES   REMARKS
MILWAUKEE      PTSUNNY   79  51  37 S15       30.04F
KENOSHA*       MOSUNNY   78  50  37 SW17      30.06F
RACINE*        CLOUDY    72  55  55 S12       30.06F
WAUKESHA       SUNNY     73  46  38 SW14G22   30.05F
WEST BEND      SUNNY     77  43  29 SW10      30.03S
$$

INZ001>003-010>013-019-020-202100-
NORTHWEST INDIANA

CITY           SKY/WX    TMP DP  RH WIND       PRES   REMARKS
GARY*          MOSUNNY   79  45  29 S12       30.10F
MICHIGAN CITY* NOT AVBL
RENSSELAER*    NOT AVBL
VALPARAISO     SUNNY     79  51  37 S14G20    30.12F
$$

LMZ740>746-202100-
SOUTHERN LAKE MICHIGAN

STATION/POSITION TIME  SKY/WX   TEMP WIND        PRES    VSBY
                                AIR  DIR/SP/G
                 (UTC)          (F)  (DEG/KT/KT) (MB)    (MI)
HARRISON CRIB    1940            76  200/ 15/ 17   N/A
BURNHAM HARBOR   2000            79  190/  8/ 16   N/A
CALUMET HARBOR   1930            77  190/  7/ 14 1018.2F
BURNS HARBOR     1940            77  180/ 12/ 18 1019.6F
MICHIGAN CITY    1940            76  170/ 10/ 13   N/A
$$

ABBREVIATIONS USED IN REMARKS
   TC - TEMPERATURE IN CELSIUS
  WCI - WIND CHILL INDEX
   HX - HEAT INDEX
  VSB - VISIBILITY
$$




USA.gov is the U.S. government's official web portal to all federal, state and local government web resources and services.